Regional Weather Roundup
Issued by NWS Burlington, VT

Home | Current Version | Previous Version | Text Only | Print | Product List | Glossary On
Versions: 1 2 3 4 5 6 7 8 9 10 11 12 13 14 15 16 17 18 19 20 21 22 23 24 25 26 27 28 29 30 31 32 33 34 35 36 37 38 39 40 41 42 43 44 45 46 47 48 49 50
000
ASUS41 KBTV 301030
RWRBTV
VERMONT REGIONAL WEATHER ROUNDUP
NATIONAL WEATHER SERVICE BURLINGTON VT
600 AM EDT THU JUL 30 2015

NOTE: "FAIR" INDICATES FEW OR NO CLOUDS BELOW 12,000 FEET WITH NO
SIGNIFICANT WEATHER AND/OR OBSTRUCTIONS TO VISIBILITY.

* THESE REPORTS ARE NOT UNDER NWS QUALITY CONTROL AND/OR DO NOT
  REPORT WEATHER SUCH AS PRECIPITATION AND FOG.

VTZ001>019-301100-
_____VERMONT_____


CITY           SKY/WX    TMP DP  RH WIND       PRES   REMARKS
BURLINGTON     PTCLDY    70  65  84 S5        29.81F
MONTPELIER     CLEAR     64  62  93 CALM      29.91S FOG
MORRISVILLE    FOG       65  63  93 CALM      29.87F VSB<1/4
ST. JOHNSBURY*   N/A     66  63  90 MISG      29.86S
LYNDONVILLE*   FOG       63  63  97 CALM      29.91S VSB<1/4
MIDDLEBURY*    FAIR      74  64  71 S5        29.84F
SPRINGFIELD    CLOUDY    61  60  97 CALM      29.90S FOG
HIGHGATE*      FAIR      69  65  86 CALM      29.79S
NEWPORT*       FAIR      67  64  89 S6        29.86S
BENNINGTON     CLEAR     63  61  93 CALM      29.89F
SUTTON*          N/A     63 N/A N/A MISG        N/A
MT. MANSFIELD*   N/A     64 N/A N/A W12         N/A

_____LAKE CHAMPLAIN_____


CITY           SKY/WX    TMP DP  RH WIND       PRES   REMARKS

$$

NYZ007-026>031-035-052-083-301100-
_____NORTHERN NEW YORK_____


CITY           SKY/WX    TMP DP  RH WIND       PRES   REMARKS
PLATTSBURGH    FOG       64  63  96 CALM      29.79S VSB 1
SARANAC LAKE   CLEAR     56  54  93 CALM      29.86F
MASSENA        CLEAR     68  62  81 S3        29.76F
OGDENSBURG*    CLEAR     70  66  88 S5        29.76S
POTSDAM*       CLEAR     73  68  83 SW7       29.77F
WATERTOWN      MOCLDY    75  67  76 S6        29.77F HAZE
FT DRUM        MOCLDY    75  67  76 S8        29.79S
ALBANY         PTCLDY    74  66  76 S9        29.86S
GLENS FALLS    CLEAR     65  63  93 CALM      29.85F

$$
NHZ002-005-011-301100-
_____NEW HAMPSHIRE_____


CITY           SKY/WX    TMP DP  RH WIND       PRES   REMARKS
LEBANON        CLEAR     63  61  93 CALM      29.88S
KEENE          CLOUDY    63  57  82 CALM      29.90S VSB 3/4
MT WASHINGTON  MOCLDY    55  54  94 W21         N/A
PLYMOUTH       FOG       62  62 100 CALM      29.89R VSB<1/4
WHITEFIELD     CLEAR     62  59  90 CALM      29.89S

$$

_____REGIONAL QUEBEC LOCATIONS_____


CITY           SKY/WX    TMP DP  RH WIND       PRES   REMARKS
MONTREAL       MOCLDY    73  64  73 SE6       29.75F
QUEBEC CITY    MOCLDY    64  61  88 N3        29.80F
SHERBROOKE     CLEAR     66  64  94 E3        29.84S

_____REGIONAL ONTARIO LOCATIONS_____


CITY           SKY/WX    TMP DP  RH WIND       PRES   REMARKS
OTTAWA         MOCLDY    70  66  88 S8        29.74F

______KEY______
VSB  - VISIBILITY IN MILES
WCI  - WIND CHILL INDEX
HX   - HEAT INDEX
$$
NNNN



USA.gov is the U.S. government's official web portal to all federal, state and local government web resources and services.